weather.gov     
National Weather Service

Terminal Aerodrome Forecast
NWS Homepage
This page is being discontinued on March 12, 2014.
The same data is available at this site. Please update your bookmarks.
Thank you, and we apologize for the inconvenience.
Please send an email to SR-SRH.Webmaster@noaa.gov with any concerns.


Current Version
Previous Version:    01  02  03  04  05  06  07  08  09  10  11  12  13  14  15  16  17  18  19  20  21  22  23  24  25  
[Printable]
315
FTPA31 PHFO 261500 AAA
TAFOGG
TAF AMD
PHOG 261507Z 2615/2712 05008G13KT P6SM FEW030 BKN045
      TEMPO 2615/2617 BKN030 BKN040
     FM262000 05014G22KT P6SM FEW035 SCT050
     FM270500 05011G17KT P6SM FEW030 SCT045
      AMD LTD TO WX VIS AND WIND TIL 261600=


U.S. Dept. of Commerce
NOAA National Weather Service
1325 East West Highway
Silver Spring, MD 20910
E-mail: w-nws.webmaster@noaa.gov
Page last modified: May 16, 2007
NATIONAL WEATHER SERVICE: for Safety, for Work, for Fun - FOR LIFE